www.pogodaiklimat.ru

Погода и климат >> Архив погоды >> Парагвай >> Сан-Педро


ПОГОДА в Сан-Педро

  • Прогноз погоды в Сан-Педро
  • Монитор погоды в Сан-Педро

АРХИВ ПОГОДЫ в Сан-Педро

Время (UTC), дата Ветер
(напр.,м/с)
 
Видим.   Явления Облачность Т
(С)
Тd
(С)
f
(%)
Тe
(С)
Тes
(С)
Комфортность P
(гПа)
Po
(гПа)
Тmin
(С)
Tmax
(С)
R
(мм)
R24
(мм)
S
(см)
12 10.06 СВ 4 20 км ясно +21.2 +19.3 89 +26 +27 душно 1016.4 1006.9 +20.6
15 10.06 С 4 20 км 5/0 2000 м
[Ac und]
+24.4 +17.4 65 +28 +32 душно 1015.7 1006.3
18 10.06 С 4 20 км 10/0
[Cs]
+28.0 +14.8 44 +30 +34 жарко 1012.5 1003.3
21 10.06 штиль 0 20 км 10/0
[Cs]
+28.4 +14.5 43 +31 +31 душно 1010.5 1001.3
00 11.06 СВ 3 20 км ясно +24.0 +19.4 75 +29 +29 душно 1011.6 1002.2 +28.4
03 11.06 СВ 3 20 км 10/0 2000 м
[Ac und]
+23.0 +20.1 84 +30 +30 очень
душно
1012.0 1002.6
12 11.06 штиль 0 20 км 9/0 2000 м
[Ac As]
+21.6 +20.1 91 +27 +28 душно 1011.8 1002.4 +21.0
15 11.06 штиль 0 20 км 9/0 2000 м
[Ac As]
+23.8 +19.2 75 +29 +33 душно 1012.3 1002.9
18 11.06 С 4 20 км 10/0 2000 м
[Ac As]
+26.2 +16.2 54 +30 +31 душно 1009.6 1000.3
00 12.06 С 3 20 км ясно +23.4 +19.7 80 +30 +30 очень
душно
1010.3 1000.9 +26.2
03 12.06 штиль 0 20 км ясно +22.6 +20.1 86 +29 +29 очень
душно
1010.3 1000.9
12 12.06 штиль 0 20 км ясно +21.0 +17.8 82 +25 +27 комфорт 1010.9 1001.4 +19.6
15 12.06 С 6 20 км ясно +29.2 +19.5 56 +35 +39 очень
душно
1010.2 1001.0
18 12.06 С 4 20 км 10/0
[Cs]
+30.6 +18.9 50 +36 +39 очень
душно
1007.5 998.4
21 12.06 С 4 20 км 10/0
[Cs]
+31.0 +18.8 48 +36 +36 очень
душно
1006.9 997.8
00 13.06 С 3 20 км ясно +26.0 +21.5 76 +33 +33 очень
душно
1008.2 998.9 +31.2
03 13.06 штиль 0 10 км дымка ясно +23.0 +21.5 91 +31 +31 очень
душно
1008.4 999.1
09 13.06 СВ 4 10 км дымка ясно +22.4 +20.4 88 +29 +29 очень
душно
1008.4 998.9
15 13.06 СВ 6 20 км ясно +28.6 +18.0 53 +33 +37 очень
душно
1012.2 1003.0
18 13.06 С 8 20 км ясно +31.6 +16.9 41 +35 +36 очень
душно
1009.5 1000.4
21 13.06 С 6 20 км ясно +28.6 +16.1 47 +32 +32 душно 1008.5 999.3
00 14.06 штиль 0 20 км ясно +23.0 +16.4 66 +28 +28 душно 1008.7 999.3 +31.6
03 14.06 штиль 0 20 км ясно +23.0 +16.6 67 +28 +28 душно 1009.9 1000.5
06 14.06 штиль 0 20 км ясно +21.8 +18.8 83 +27 +27 душно 1009.8 1000.4
09 14.06 штиль 0 20 км ясно +21.6 +19.1 86 +27 +27 душно 1011.8 1002.4
12 14.06 СВ 4 20 км 8/0 2000 м
[Ac und Cs]
+20.8 +16.0 74 +24 +25 комфорт 1013.8 1004.3 +18.6
18 14.06 С 6 20 км ясно +32.0 +13.9 33 +33 +36 жарко 1010.2 1001.1
21 14.06 штиль 0 20 км 8/0
[Cs]
+31.8 +14.0 34 +33 +33 жарко 1009.6 1000.5
00 15.06 штиль 0 20 км ясно +26.0 +18.2 62 +31 +31 очень
душно
1011.0 1001.7 +32.2
03 15.06 штиль 0 20 км ясно +24.0 +19.3 75 +29 +29 душно 1011.5 1002.1
15 15.06 С 3 20 км 10/0
[Cs]
+27.0 +19.0 62 +32 +39 очень
душно
1013.3 1004.0
18 15.06 С 3 20 км 8/0
[Cs]
+32.0 +16.0 38 +35 +39 очень
душно
1012.5 1003.4
21 15.06 штиль 0 20 км 9/0
[Cs]
+31.6 +16.3 40 +35 +35 очень
душно
1010.7 1001.6
00 16.06 штиль 0 20 км ясно +26.6 +21.0 71 +33 +33 очень
душно
1011.5 1002.2 +32.4
03 16.06 штиль 0 20 км 8/0 2000 м
[Ac und]
+23.6 +21.2 86 +30 +30 очень
душно
1012.0 1002.6
06 16.06 штиль 0 10 км дымка 8/0
[Cs]
+23.0 +21.5 91 +31 +31 очень
душно
1010.8 1001.4
09 16.06 штиль 0 10 км дымка 8/0
[Cs]
+22.6 +20.3 87 +29 +29 очень
душно
1011.2 1001.8
12 16.06 штиль 0 20 км 10/0 2000 м
[Ac und]
+25.0 +20.4 76 +31 +32 очень
душно
1014.1 1004.8 +22.6
15 16.06 С 3 20 км 8/0 2000 м
[Ac und]
+27.0 +19.3 63 +33 +36 очень
душно
1015.7 1006.4
21 16.06 штиль 0 20 км 4/0 2000 м
[Ac lent]
+30.0 +17.4 47 +34 +34 очень
душно
1013.0 1003.8
00 17.06 штиль 0 20 км 5/0 2000 м
[Ac und]
+26.0 +19.8 69 +32 +32 очень
душно
1015.4 1006.0 +30.6
03 17.06 штиль 0 20 км 10/0
[Cs]
+24.6 +20.4 77 +30 +30 очень
душно
1017.8 998.4
09 17.06 штиль 0 10 км дымка 10/10 800 м
[Sc]
+21.8 +20.7 93 +28 +28 душно 1016.3 1006.8

 

Местоположение метеостанции Сан-Педро (Парагвай): широта -24.06 долгота -57.08 высота над уровнем моря 80 м.

В архиве по умолчанию представлена погода в Сан-Педро за последнюю неделю. Архивные данные за месяц целиком и за предыдущие месяцы, начиная с января 2011 года, Вы можете получить, выбрав интересующий диапазон дат из раскрывающегося списка и нажав кнопку "Ввод!".


*Определитесь, кто Вы:
робот инопланетянин человек

Внимание! Время в таблицах - всемирное. Для получения местного времени необходимо прибавить поправку, которая равна -4 ч.

Смотрите также архив погоды в соседних городах и на ближайших метеорологических станциях:

Погода в Консепсьоне (Парагвай) (76 км)
Погода в Сан Эстанислао (Парагвай) (93 км)
Погода в Асунсьоне (Парагвай) (139 км)
Погода в Коронель-Овьедо (Парагвай) (171 км)
Погода в Парагуари (Парагвай) (175 км)
Погода в Грал Бругуез (Парагвай) (194 км)
Погода в Вильяррике (Парагвай) (199 км)
Погода в Посо Колорадо (Парагвай) (200 км)
Погода в Сети-Кедасе (Мату-Гросу-ду-Сул, Бразилия) (210 км)
Погода в Пуэрто-Касадо (Парагвай) (213 км)

Пояснения к столбцам:

Ветер - указаны скорость ветра в м/с - средняя за 10 мин, порывы в срок и между сроками (в фигурных скобках) и направление, откуда дует ветер: С - северный, СВ - северо-восточный, В - восточный, ЮВ - юго-восточный, Ю - южный, ЮЗ - юго-западный, З - западный, СЗ - северо-западный.
Видимость - горизонтальная дальность видимости в метрах или километрах. При видимости от 1 до 10 км при отсутствии осадков обычно наблюдается дымка, при ухудшении видимости до 1 км и менее - туман. В сухую погоду видимость может ухудшаться дымом, пылью или мглою.
Явления - указаны атмосферные явления, наблюдавшиеся в срок или в последний час перед сроком; фигурными скобками обозначены явления, наблюдавшиеся между сроками (за 1-3 часа до срока); квадратными скобками обозначены град или гололедные отложения с указанием их диаметра в мм.
Облачность - указаны через наклонную черту общая и нижняя облачность в баллах и высота нижней границы облаков в метрах; квадратными скобками обозначены формы облаков: Ci - перистые, Cs - перисто-слоистые, Cc - перисто-кучевые, Ac - высококучевые, As - высокослоистые, Sc - слоисто-кучевые, Ns - слоисто-дождевые, Cu - кучевые, Cb - кучево-дождевые. Подробнее классификацию облаков см. в Атласе облаков (PDF).
T - Температура воздуха - температура, измеренная на высоте 2 м над землей.
Td - Температура точки росы - температура, при понижении до которой содержащийся в воздухе водяной пар достигнет насыщения.
f - Относительная влажность воздуха - влажноcть воздуха, измеренная на высоте 2 м над землей.
Te - Эффективная температура - температура, которую ощущает одетый по сезону человек в тени. Характеристика душности погоды. При расчете учитывается влияние влажности воздуха и скорости ветра на теплоощущения человека.
Tes - Эффективная температура на солнце - температура, которую ощущает человек, с поправкой на солнечный нагрев. Характеристика знойности погоды. Зависит от высоты солнца над горизонтом, облачности и скорости ветра. Ночью, в пасмурную погоду, а также при ветре 12 м/с и более поправка равна нулю.
P - Атмосферное давление - приведенное к уровню моря атмосферное давление.
Po - Атмосферное давление - измеренное на уровне метеостанции атмосферное давление.
Tmin - Минимальная температура - минимум температуры воздуха на высоте 2 м над землей.
Tmax - Максимальная температура - максимум температуры воздуха на высоте 2 м над землей.
R - Количество осадков - Количество выпавших осадков за период времени, мм. При наведении курсора мыши на число - период времени, за который выпало указанное количество осадков.
R24 - Количество осадков - Количество выпавших осадков за 24 часа, мм.
S - Снежный покров - Высота снежного покрова, см. При наведении курсора мыши на число - состояние снежного покрова и степень покрытия местности в баллах.